If you wish to contribute or participate in the discussions about articles you are invited to join SKYbrary as a registered user

 Actions

Coronel FAP Alfredo Mendivil Duarte Airport

From SKYbrary Wiki

SPHO
Airport
ICAO: SPHO – IATA: AYP
Summary
Name Coronel FAP Alfredo Mendivil Duarte Airport
Region South America and Caribbean
Territory Peru PE.gif
Location Ayacucho, Ayacucho
Serving Ayacucho
Elevation 2,717.902 m
8,917 ft
8,917 ft2,717.902 m
Type medium airport
Coordinates 13° 9' 17.35" S, 74° 12' 15.90" W
Runways
Designator Length Width Surface ROPS
2/20 2800 m9,186.352 ft
45 m147.638 ft
ASP /


METAR
Observation SPHO 141300Z VRB01KT 9999 FEW035 14/06 Q1030 RMK PP000
Station Ayacucho
Date/Time 14 October 2019 13:00:00
Wind direction °
Wind speed 01 kts
Lowest cloud amount few clouds
Temperature 14°C
Dew point 6°C
Humidity 58%
QNH 1030 hPa
Weather condition n/a

Airport serving Ayacucho, Peru. The runway sits on a mesa overlooking the Totorilla River, with high terrain in all quadrants.

Climatology

Cold Semi-arid climate (Köppen climate classification BSk).

Maps

Terrain

Loading map...

Airport Layout

Loading map...


Accidents & Serious Incidents at or in vicinity of SPHO

None on SKYbrary